This is the latest recevied weather packets stored in our database for station/object DK8RG-15. If no packets are shown the sender has not sent any weather packets the latest 10 day(s).
| Time | Temp. | Humidity | Pressure | Rain* | Wind** | Luminosity | Snow |
|---|---|---|---|---|---|---|---|
| 1777537817 | 10.56° C | 38% | 1027.3 hPa | 0 mm | - | - | - |
| 1777537218 | 10° C | 37% | 1027.2 hPa | 0 mm | - | - | - |
| 1777536618 | 10.56° C | 38% | 1027.3 hPa | 0 mm | - | - | - |
| 1777536018 | 10.56° C | 40% | 1027.2 hPa | 0 mm | - | - | - |
| 1777535418 | 10° C | 42% | 1027.2 hPa | 0 mm | - | - | - |
| 1777534819 | 8.89° C | 43% | 1027.2 hPa | 0 mm | - | - | - |
| 1777534225 | 9.44° C | 43% | 1027.3 hPa | 0 mm | - | - | - |
| 1777533619 | 8.89° C | 43% | 1027.3 hPa | 0 mm | - | - | - |
| 1777533019 | 8.33° C | 45% | 1027.3 hPa | 0 mm | - | - | - |
| 1777532419 | 7.22° C | 47% | 1027.2 hPa | 0 mm | - | - | - |
| 1777531819 | 7.22° C | 49% | 1027.2 hPa | 0 mm | - | - | - |
| 1777531219 | 6.67° C | 51% | 1027.2 hPa | 0 mm | - | - | - |
| 1777530620 | 4.44° C | 52% | 1027.1 hPa | 0 mm | - | - | - |
| 1777530020 | 3.33° C | 55% | 1027.1 hPa | 0 mm | - | - | - |
| 1777529420 | 2.78° C | 57% | 1027.1 hPa | 0 mm | - | - | - |
| 1777528820 | 1.11° C | 62% | 1027 hPa | 0 mm | - | - | - |
| 1777528220 | 0.56° C | 65% | 1027 hPa | 0 mm | - | - | - |
| 1777527620 | 0° C | 67% | 1027 hPa | 0 mm | - | - | - |
| 1777527020 | 0° C | 69% | 1027 hPa | 0 mm | - | - | - |
| 1777526421 | 0° C | 71% | 1026.9 hPa | 0 mm | - | - | - |
| 1777525820 | -1.11° C | 72% | 1026.9 hPa | 0 mm | - | - | - |
| 1777525220 | -1.11° C | 73% | 1025.9 hPa | 0 mm | - | - | - |
| 1777524620 | -1.11° C | 74% | 1025.9 hPa | 0 mm | - | - | - |
| 1777524020 | -1.11° C | 73% | 1025.9 hPa | 0 mm | - | - | - |
| 1777523420 | -1.67° C | 73% | 1025.9 hPa | 0 mm | - | - | - |
* Rain latest hour (hover to see other rain measurements)
** Current wind speed in m/s (hover to see current wind gust speed)